#timestamp,LO_Frequency,Hit 
1502632815.8,286047001.1,N
1502632835.7,286046998.2,N
1502632855.5,286047000.5,N
1502632875.4,286047000.2,N
1502632895.2,286047002.5,N
1502632915.0,286047002.1,N
1502632915.9,286047002.1,N
1502632935.8,286047000.0,N
1502632955.6,286047000.1,N
1502632975.5,286047000.9,N
1502632995.3,286047000.9,N
1502633015.1,286047000.8,N
1502633035.9,286046999.4,N
1502633055.7,286046999.6,N
1502633075.5,286046998.5,N
1502633095.4,286046997.3,N
1502633115.2,286046997.7,N
1502633135.1,286046997.6,N
1502633136.0,286046997.6,N
1502633155.8,286046997.1,N
1502633175.6,286046997.2,N
1502633195.5,286046997.8,N
1502633215.3,286046996.5,N
1502633235.2,286046997.1,N
1502633255.9,286046997.8,N
1502633275.7,286046997.5,N
1502633295.6,286046995.3,N
1502633315.4,286046994.9,N
1502633335.3,286046997.1,N
1502633355.1,286046997.2,N
1502633356.0,286046997.2,N
1502633375.8,286046997.5,N
1502633395.7,286046995.3,N
1502633415.5,286046996.2,N
1502633435.3,286046997.9,N
1502633455.2,286046997.9,N
1502633475.0,286046995.3,N
1502633475.9,286046995.3,N
1502633495.8,286046995.5,N
1502633515.6,286046997.6,N
1502633535.4,286046997.4,N
1502633555.3,286046997.5,N
1502633575.1,286046995.0,P
1502633595.9,286046998.7,N
1502633615.7,286046998.4,N
1502633635.5,286046999.2,N
1502633655.4,286046998.6,N
1502633675.2,286046998.1,N
1502633695.0,286046996.6,N
1502633695.9,286046996.6,N
1502633715.8,286046999.5,N
1502633735.6,286046998.6,N
1502633755.5,286047001.2,N
1502633775.3,286046998.1,N
1502633795.1,286047002.6,N
1502633815.9,286047002.3,N
1502633835.7,286047000.8,N
1502633855.5,286047000.1,N
1502633875.4,286047000.0,N
1502633895.2,286046998.5,N
1502633915.1,286046998.5,N
1502633916.0,286046998.5,N
1502633935.8,286046998.6,N
1502633955.6,286046998.7,N
1502633975.5,286047000.0,N
1502633995.3,286047002.8,N
1502634015.2,286047000.0,N
1502634035.9,286047000.8,N
1502634055.7,286046998.3,N
1502634075.6,286047001.0,N
1502634095.4,286046998.1,N
1502634115.2,286046998.5,N
1502634135.1,286046998.7,N
1502634136.0,286046998.7,N
1502634155.8,286046998.2,N
1502634175.7,286047000.8,N
1502634195.5,286046999.9,N
1502634215.3,286047000.0,N
1502634235.2,286047000.7,N
1502634255.0,286047001.0,N
1502634255.9,286047001.0,N
1502634275.8,286046999.0,N
1502634295.6,286046999.3,N
1502634315.4,286046999.4,N
1502634335.3,286046998.3,N
1502634355.1,286047000.1,N
1502634375.8,286047000.2,N
1502634395.7,286047001.0,N
1502634415.5,286047000.6,N
1502634435.4,286047000.9,N
1502634455.2,286047000.7,N
1502634475.0,286046998.7,N
1502634475.9,286046998.7,N
1502634495.8,286047000.2,N
1502634515.6,286047000.0,N
1502634535.4,286047000.6,N
1502634555.3,286047000.2,N
1502634575.1,286047002.6,N
1502634595.9,286047000.6,N
1502634615.7,286047000.7,N
1502634635.5,286047001.0,N
1502634655.4,286047000.7,N
1502634675.2,286047000.4,N
1502634695.0,286047000.5,N
1502634695.9,286047000.5,N
1502634715.8,286047000.7,N
1502634735.6,286046998.4,N
1502634755.5,286046998.8,N
1502634775.3,286046998.4,N
1502634795.1,286046998.2,N
1502634815.9,286047001.0,N
1502634835.7,286047000.7,N
1502634855.6,286047000.6,N
1502634875.4,286046998.4,N
1502634895.2,286047001.2,N
1502634915.1,286046998.5,N
1502634916.0,286046998.5,N
1502634935.8,286046999.1,N
1502634955.6,286046999.3,N
1502634975.5,286047000.8,N
1502634995.3,286047000.5,N
1502635015.2,286046999.9,N
1502635035.9,286047000.8,N
1502635055.7,286047001.0,N
1502635075.6,286047000.6,N
1502635095.4,286046998.1,N
1502635115.2,286046998.9,N
1502635135.1,286046998.2,N
1502635136.0,286046998.2,N
1502635155.8,286046998.6,N
1502635175.7,286047000.8,N
1502635195.5,286046998.2,N
1502635215.3,286047001.1,N
1502635235.2,286047000.8,N
1502635255.0,286047001.2,N
1502635255.9,286047001.2,N
1502635275.8,286046998.5,N
1502635295.6,286046998.6,N
1502635315.4,286046999.0,N
1502635335.3,286046999.1,N
1502635355.1,286047000.3,N
1502635375.9,286046998.1,N
1502635395.7,286046998.5,N
1502635415.5,286047000.7,P
1502635435.4,286047000.5,N
1502635455.2,286047002.4,P
1502635475.0,286047001.3,N
1502635475.9,286047001.3,N
1502635495.8,286047000.1,N
1502635515.6,286046999.7,N
1502635535.5,286047003.9,P
1502635555.3,286047002.0,N
1502635575.1,286047000.5,N
1502635595.9,286046999.8,N
1502635615.7,286047000.2,N
1502635635.6,286047000.3,N
1502635655.4,286047000.1,N
1502635675.2,286047000.6,N
1502635695.6,286046999.9,N
1502635715.4,286046999.9,N
1502635735.3,286046999.9,N
1502635755.1,286047000.3,N
1502635775.8,286047000.9,N
1502635795.7,286046998.6,N
1502635815.5,286047000.5,N
1502635835.4,286047000.5,N
1502635855.2,286047000.8,N
1502635875.0,286047000.2,N
1502635875.9,286047000.2,N
1502635895.8,286047000.9,N
1502635915.6,286046998.4,N
1502635935.4,286047000.3,N
1502635955.3,286046998.5,N
1502635975.1,286047001.2,N
1502635995.9,286047001.1,N
1502636015.7,286046998.6,N
1502636035.5,286046998.8,N
1502636055.4,286046998.5,N
1502636075.2,286047000.1,N
1502636095.0,286047000.5,N
1502636096.0,286047000.5,N
1502636115.8,286047001.2,N
1502636135.6,286047000.4,N
1502636155.5,286047000.0,N
1502636175.3,286046999.8,N
1502636195.1,286047002.8,P
1502636215.9,286047000.0,N
1502636235.7,286047000.0,N
1502636255.6,286047000.2,N
1502636275.4,286047000.9,N
1502636295.2,286046998.2,N
1502636315.1,286047001.2,N
1502636316.0,286047001.2,N
1502636335.8,286047000.6,N
1502636355.6,286046998.3,N
1502636375.5,286046999.1,P
1502636395.3,286046997.7,P
